When you browse on this site, cookies collect data to enhance your experience and personalize the content and advertising you see.
Visit our Privacy Policy to learn more. By continuing to use the site, you agree to this use of cookies and data.
  • In Hungary
  • List of Countries
  • For 7 days
  • Water Temperature
  • Satellite Maps
  • Weather Map
  • News
  • Weather Widgets
  • user-avatar
    Login

    Hourly Weather Sapowo

    Today, 25 May, Saturday

    Time Temperature Precipitation Wind Pressure Humidity
    00:00 +14°C° 0 mm 1 mps 745 mmHg 91%
    01:00 +13°C° 0 mm 1 mps 745 mmHg 92%
    02:00 +13°C° 0 mm 1 mps 744 mmHg 92%
    03:00 +13°C° 0 mm 1 mps 744 mmHg 92%
    04:00 +13°C° 0 mm 1 mps 744 mmHg 91%
    05:00 +11°C° 0 mm 0 mps 744 mmHg 90%
    06:00 +14°C° 0 mm 1 mps 744 mmHg 86%
    07:00 +16°C° 0 mm 1 mps 744 mmHg 81%
    08:00 +18°C° 0 mm 2 mps 745 mmHg 75%
    09:00 +19°C° 0.1 mm 3 mps 745 mmHg 70%
    10:00 +20°C° 0.1 mm 3 mps 745 mmHg 64%
    11:00 +21°C° 0.1 mm 4 mps 745 mmHg 58%
    12:00 +21°C° 0 mm 4 mps 744 mmHg 57%
    13:00 +22°C° 0 mm 4 mps 744 mmHg 55%
    14:00 +22°C° 0 mm 4 mps 744 mmHg 53%
    15:00 +22°C° 0.1 mm 4 mps 744 mmHg 56%
    16:00 +22°C° 0.1 mm 4 mps 744 mmHg 59%
    17:00 +21°C° 0.1 mm 5 mps 744 mmHg 61%
    18:00 +20°C° 0.1 mm 4 mps 744 mmHg 69%
    19:00 +18°C° 0.1 mm 3 mps 744 mmHg 77%
    20:00 +16°C° 0.1 mm 2 mps 744 mmHg 86%
    21:00 +15°C° 0 mm 2 mps 744 mmHg 87%
    22:00 +14°C° 0 mm 2 mps 745 mmHg 89%
    23:00 +13°C° 0 mm 2 mps 745 mmHg 91%

    Tomorrow, 26 May, Sunday

    Time Temperature Precipitation Wind Pressure Humidity
    00:00 +12°C° 0 mm 2 mps 745 mmHg 90%
    01:00 +12°C° 0 mm 2 mps 746 mmHg 88%
    02:00 +11°C° 0 mm 1 mps 746 mmHg 87%
    03:00 +12°C° 0 mm 1 mps 746 mmHg 86%
    04:00 +12°C° 0 mm 1 mps 746 mmHg 86%
    05:00 +12°C° 0 mm 1 mps 746 mmHg 85%
    06:00 +12°C° 0 mm 2 mps 746 mmHg 84%
    07:00 +12°C° 0 mm 3 mps 746 mmHg 82%
    08:00 +13°C° 0 mm 4 mps 746 mmHg 81%
    09:00 +14°C° 0 mm 5 mps 746 mmHg 76%
    10:00 +15°C° 0 mm 5 mps 746 mmHg 71%
    11:00 +16°C° 0 mm 5 mps 746 mmHg 66%
    12:00 +16°C° 0 mm 5 mps 746 mmHg 65%
    13:00 +17°C° 0 mm 5 mps 745 mmHg 64%
    14:00 +17°C° 0 mm 5 mps 745 mmHg 63%
    15:00 +17°C° 0 mm 5 mps 745 mmHg 63%
    16:00 +17°C° 0 mm 5 mps 745 mmHg 64%
    17:00 +17°C° 0 mm 5 mps 744 mmHg 65%
    18:00 +17°C° 0 mm 4 mps 744 mmHg 70%
    19:00 +16°C° 0 mm 3 mps 744 mmHg 75%
    20:00 +15°C° 0 mm 2 mps 744 mmHg 80%
    21:00 +14°C° 0 mm 2 mps 744 mmHg 82%
    22:00 +14°C° 0 mm 2 mps 744 mmHg 85%
    23:00 +13°C° 0 mm 2 mps 744 mmHg 87%

    Day after tomorrow, 27 May, Monday

    Time Temperature Precipitation Wind Pressure Humidity
    00:00 +12°C° 0 mm 3 mps 744 mmHg 86%
    01:00 +12°C° 0 mm 3 mps 744 mmHg 85%
    02:00 +12°C° 0 mm 3 mps 744 mmHg 84%
    03:00 +12°C° 0 mm 4 mps 744 mmHg 83%
    04:00 +13°C° 0 mm 4 mps 744 mmHg 82%
    05:00 +13°C° 0 mm 4 mps 744 mmHg 82%
    06:00 +14°C° 0 mm 4 mps 744 mmHg 79%
    07:00 +17°C° 0 mm 4 mps 744 mmHg 77%
    08:00 +17°C° 0 mm 5 mps 744 mmHg 75%
    09:00 +19°C° 0 mm 5 mps 744 mmHg 70%
    10:00 +21°C° 0 mm 6 mps 744 mmHg 66%
    11:00 +22°C° 0 mm 6 mps 744 mmHg 62%
    12:00 +23°C° 0.3 mm 6 mps 744 mmHg 62%
    13:00 +23°C° 0.3 mm 6 mps 744 mmHg 63%
    14:00 +23°C° 0.3 mm 6 mps 743 mmHg 63%
    15:00 +24°C° 0.2 mm 6 mps 743 mmHg 63%
    16:00 +25°C° 0.2 mm 5 mps 743 mmHg 63%
    17:00 +25°C° 0.2 mm 5 mps 743 mmHg 63%
    18:00 +22°C° 0.2 mm 4 mps 743 mmHg 69%
    19:00 +21°C° 0.2 mm 3 mps 743 mmHg 75%
    20:00 +19°C° 0.2 mm 2 mps 743 mmHg 81%
    21:00 +18°C° 0 mm 2 mps 744 mmHg 85%
    22:00 +17°C° 0 mm 2 mps 744 mmHg 88%
    23:00 +17°C° 0 mm 2 mps 744 mmHg 91%

    28 May, Tuesday

    Time Temperature Precipitation Wind Pressure Humidity
    00:00 +16°C° 0 mm 2 mps 744 mmHg 92%
    01:00 +16°C° 0 mm 2 mps 744 mmHg 93%
    02:00 +16°C° 0 mm 2 mps 744 mmHg 94%
    03:00 +16°C° 0 mm 1 mps 744 mmHg 94%
    04:00 +15°C° 0 mm 1 mps 744 mmHg 94%
    05:00 +15°C° 0 mm 1 mps 743 mmHg 94%
    06:00 +16°C° 0.6 mm 1 mps 743 mmHg 94%
    07:00 +17°C° 0.6 mm 2 mps 743 mmHg 93%
    08:00 +18°C° 0.6 mm 2 mps 743 mmHg 93%
    09:00 +18°C° 2.9 mm 2 mps 743 mmHg 92%
    10:00 +19°C° 2.9 mm 3 mps 742 mmHg 92%
    11:00 +19°C° 2.9 mm 3 mps 742 mmHg 92%
    12:00 +20°C° 0.9 mm 4 mps 742 mmHg 87%
    13:00 +22°C° 0.9 mm 4 mps 741 mmHg 83%
    14:00 +23°C° 0.9 mm 5 mps 741 mmHg 79%
    15:00 +23°C° 1 mm 4 mps 741 mmHg 80%
    16:00 +23°C° 1 mm 4 mps 740 mmHg 80%
    17:00 +24°C° 1 mm 3 mps 740 mmHg 81%
    18:00 +22°C° 0.7 mm 3 mps 740 mmHg 84%
    19:00 +21°C° 0.7 mm 3 mps 740 mmHg 87%
    20:00 +20°C° 0.7 mm 3 mps 740 mmHg 90%
    21:00 +19°C° 1.9 mm 3 mps 740 mmHg 92%
    22:00 +18°C° 1.9 mm 3 mps 739 mmHg 94%
    23:00 +18°C° 1.9 mm 3 mps 739 mmHg 95%

    29 May, Wednesday

    Time Temperature Precipitation Wind Pressure Humidity
    00:00 +17°C° 0 mm 2 mps 739 mmHg 95%
    01:00 +17°C° 0 mm 2 mps 739 mmHg 96%
    02:00 +17°C° 0 mm 2 mps 739 mmHg 96%
    03:00 +17°C° 0 mm 2 mps 739 mmHg 96%
    04:00 +17°C° 0 mm 2 mps 739 mmHg 96%
    05:00 +16°C° 0 mm 2 mps 739 mmHg 96%
    06:00 +19°C° 0 mm 1 mps 739 mmHg 93%
    07:00 +20°C° 0 mm 1 mps 739 mmHg 91%
    08:00 +21°C° 0 mm 1 mps 740 mmHg 88%
    09:00 +22°C° 1.6 mm 1 mps 740 mmHg 86%
    10:00 +22°C° 1.6 mm 1 mps 740 mmHg 85%
    11:00 +21°C° 1.6 mm 2 mps 740 mmHg 83%
    12:00 +21°C° 1.6 mm 2 mps 741 mmHg 83%
    13:00 +21°C° 1.6 mm 3 mps 741 mmHg 84%
    14:00 +21°C° 1.6 mm 4 mps 741 mmHg 84%
    15:00 +19°C° 0.8 mm 5 mps 742 mmHg 87%
    16:00 +17°C° 0.8 mm 6 mps 742 mmHg 90%
    17:00 +15°C° 0.8 mm 7 mps 742 mmHg 92%
    18:00 +14°C° 0 mm 6 mps 743 mmHg 92%
    19:00 +11°C° 0 mm 6 mps 744 mmHg 91%
    20:00 +10°C° 0 mm 5 mps 745 mmHg 91%
    21:00 +10°C° 0.1 mm 5 mps 745 mmHg 91%
    22:00 +9°C° 0.1 mm 5 mps 746 mmHg 92%
    23:00 +9°C° 0.1 mm 5 mps 747 mmHg 92%

    30 May, Thursday

    Time Temperature Precipitation Wind Pressure Humidity
    00:00 +9°C° 0 mm 5 mps 747 mmHg 91%
    01:00 +8°C° 0 mm 5 mps 748 mmHg 90%
    02:00 +8°C° 0 mm 4 mps 748 mmHg 90%
    03:00 +8°C° 0 mm 4 mps 749 mmHg 89%
    04:00 +7°C° 0 mm 4 mps 749 mmHg 88%
    05:00 +8°C° 0 mm 3 mps 750 mmHg 87%
    06:00 +8°C° 0.2 mm 3 mps 750 mmHg 86%
    07:00 +8°C° 0.2 mm 3 mps 751 mmHg 86%
    08:00 +9°C° 0.2 mm 3 mps 751 mmHg 86%
    09:00 +9°C° 0 mm 3 mps 751 mmHg 81%
    10:00 +10°C° 0 mm 3 mps 752 mmHg 76%
    11:00 +11°C° 0 mm 3 mps 752 mmHg 71%
    12:00 +12°C° 0 mm 3 mps 752 mmHg 66%
    13:00 +13°C° 0 mm 3 mps 752 mmHg 61%
    14:00 +14°C° 0 mm 3 mps 752 mmHg 57%
    15:00 +16°C° 0 mm 3 mps 752 mmHg 57%
    16:00 +16°C° 0 mm 2 mps 752 mmHg 57%
    17:00 +17°C° 0 mm 2 mps 752 mmHg 57%
    18:00 +16°C° 0 mm 2 mps 752 mmHg 62%
    19:00 +15°C° 0 mm 2 mps 752 mmHg 67%
    20:00 +15°C° 0 mm 2 mps 752 mmHg 71%
    21:00 +14°C° 0 mm 1 mps 752 mmHg 71%
    22:00 +14°C° 0 mm 1 mps 752 mmHg 70%
    23:00 +13°C° 0 mm 1 mps 752 mmHg 69%
    Show more